Regional Weather Roundup
Issued by NWS San Diego, CA

Home | Current Version | Previous Version | Text Only | Print | Product List | Glossary On
Versions: 1 2 3 4 5 6 7 8 9 10 11 12 13 14 15 16 17 18 19 20 21 22 23 24 25 26 27 28 29 30 31 32 33 34 35 36 37 38 39 40 41 42 43 44 45 46 47 48 49 50
358
ASUS46 KSGX 251811
RWRSGX

SAN DIEGO HOURLY WEATHER ROUNDUP
NATIONAL WEATHER SERVICE SAN DIEGO CA
1100 AM PDT MON SEP 25 2017

NOTE: "FAIR" INDICATES FEW OR NO CLOUDS BELOW 12,000 FEET WITH NO
SIGNIFICANT WEATHER AND/OR OBSTRUCTIONS TO VISIBILITY.

CAZ042-043-060-061-PZZ750-775-251900-

GREATER SAN DIEGO AREA

CITY           SKY/WX    TMP DP  RH WIND       PRES   REMARKS
SAN DIEGO AP   MOSUNNY   80  32  17 CALM      29.86F
NATIONAL CITY    N/A     79  43  27 SW3       29.87F
CHULA VISTA      N/A     82  43  25 W2        29.76F
IMPERIAL BEACH MOSUNNY   79  36  21 W9        29.85F
BROWN FIELD    SUNNY     82  31  15 VRB3      29.86F
MIRAMAR MCAS   MOSUNNY   87  28  12 NW6       29.85F
MONTGOMERY FLD SUNNY     84  30  14 VRB5      29.85F
GILLESPIE FLD  SUNNY     79  28  15 CALM      29.86F

$$

NORTH SAN DIEGO COUNTY

CITY           SKY/WX    TMP DP  RH WIND       PRES   REMARKS
CAMP PENDLETON MOSUNNY   84  27  12 SE6       29.83F
OCEANSIDE AP   SUNNY     84  34  16 W9        29.83F
OCEANSIDE HBR    N/A     72  56  57 CALM      29.87F
VISTA            N/A     81  35  19 CALM      29.82F
CARLSBAD       SUNNY     79  38  22 CALM      29.84F
DEL MAR          N/A     75  44  32 CALM      29.87F
LA JOLLA SCRIP   N/A     73  40  30 S1        29.85F
FALLBROOK        N/A     82  35  19 CALM      29.86F
ESCONDIDO        N/A     84  35  17 W3        29.85F
SAN MARCOS       N/A     81  36  20 W5        29.86F
POWAY            N/A     80  32  17 CALM      29.86F

$$

EAST SAN DIEGO COUNTY

CITY           SKY/WX    TMP DP  RH WIND       PRES   REMARKS
RAMONA         SUNNY     82  19   9 MISG      29.87F
SANTEE LAKES     N/A     81  35  19 CALM      29.83F
LA MESA          N/A     79  35  20 NW1       29.78F
JAMUL            N/A     81  37  20 CALM      29.85F
DESCANSO N       N/A     71  24  17 E6        29.82F
CAMPO            N/A     76  14   9 NE16G28   29.89F

$$

ORANGE COUNTY AND THE LOS ANGELES BASIN

CITY           SKY/WX    TMP DP  RH WIND       PRES   REMARKS
JOHN WAYNE AP  MOSUNNY   77  51  40 SW8       29.85F
LAGUNA BEACH     N/A     74  62  66 S1        29.81S
LAKE FOREST FR   N/A     84  24  11 N10       29.71F
HUNTINGTON BCH   N/A     74  65  74 S3        29.87S
LOS ALAMITOS   MOSUNNY   81  39  22 CALM      29.85F
FULLERTON      MOSUNNY   83  33  16 CALM      29.84F
LONG BEACH     MOSUNNY   82  31  15 CALM      29.86S
L.A. AP        MOSUNNY   82  32  16 VRB3      29.86S
L.A. DOWNTOWN  MOSUNNY   84  36  18 CALM      29.85S

$$

THE INLAND EMPIRE

CITY           SKY/WX    TMP DP  RH WIND       PRES   REMARKS
CHINO          MOSUNNY   85  27  12 VRB3      29.87F
ONTARIO        MOSUNNY   81  21  11 VRB5      29.87F
SAN BERNARDINO MOSUNNY   82  21  10 CALM      29.88F
RIVERSIDE AP   SUNNY     82  25  12 N14G24    29.86F
MORENO VALLEY    N/A     80  29  15 S2        28.03F
MARCH ARB      SUNNY     78  16   9 N6        29.90S
HORSETHIEF CYN   N/A     79  18  10 NE5       29.87F
PERRIS           N/A     77  29  17 NW1         N/A
HEMET EAST       N/A     73  24  16 W5        29.92F
FRENCH VALLEY  FAIR      77  19  11 NW3       29.89F
TEMECULA         N/A     73  44  34 W1        29.94F

$$

SAN BERNARDINO AND RIVERSIDE COUNTY MOUNTAINS

CITY           SKY/WX    TMP DP  RH WIND       PRES   REMARKS
BIG BEAR AP    SUNNY     52  16  24 NE10G18   30.11S
ANGELUS OAKS     N/A     59  25  27 CALM      29.84S
PINE COVE        N/A     57  21  25 CALM      29.91F

$$

SOUTHERN DESERT INCLUDING THE COACHELLA VALLEY

CITY           SKY/WX    TMP DP  RH WIND       PRES   REMARKS
PALM SPRINGS   SUNNY     86  21   9 N7G20     29.89F
THOUSAND PALMS   N/A     85  26  12 N6        29.85F
PALM DESERT      N/A     85  25  11 N3          N/A
THERMAL        SUNNY     87  21   9 NW14G22   29.83F
BLYTHE         MOSUNNY   84  29  13 N13       29.85F
IMPERIAL AP    MOSUNNY   85  33  15 N14       29.83F
EL CENTRO NAS  MOSUNNY   86  23  10 N17       29.85F
YUMA AZ        MOSUNNY   84  27  12 N10       29.83S
MEXICALI       PTSUNNY   82  25  12 N16       29.94R

$$

UPPER DESERT

CITY           SKY/WX    TMP DP  RH WIND       PRES   REMARKS
VICTORVILLE AP SUNNY     70  19  14 CALM      30.02F
HESPERIA         N/A     70  25  18 E3        30.09F
PALMDALE       SUNNY     72  22  15 E9        30.01F
LANCASTER      SUNNY     72  23  16 NE10      30.01F
EDWARDS AFB    MOSUNNY   68  20  16 NE6       29.98F
DAGGETT        SUNNY     73  25  16 VRB6      29.99F
29 PALMS N     SUNNY     75  18  11 N12       30.03F
NEEDLES        PTSUNNY   79  30  16 N21       29.89F

$$

REGIONAL REPORTS

CITY           SKY/WX    TMP DP  RH WIND       PRES   REMARKS
SANTA BARBARA  SUNNY     76  46  34 S7        29.87R
SANDBERG       SUNNY     68  22  17 E16G28    30.06F
LAS VEGAS NV   MOSUNNY   72  28  19 VRB5      29.99F
PHOENIX AZ     MOSUNNY   80  22  11 VRB5      29.82F
TIJUANA        MOSUNNY   81  25  12 CALM      29.88F
ENSENADA NW      N/A     71  32  23 CALM      29.81F

$$

OFFSHORE ISLANDS

CITY           SKY/WX    TMP DP  RH WIND       PRES   REMARKS
CATALINA ARPT  SUNNY     79  25  13 E9        29.91F
SAN CLEMENTE I MOSUNNY   74  62  66 N7        29.88F
SAN NICOLAS IS MOSUNNY   78  42  27 N5        29.88S

$$

MARINE AND OFFSHORE BUOY REPORTS

STATION/POSITION SKY/WX   TEMP    WIND        PRES    VSBY  SWELL
                          AIR SEA DIR/SP/G                  HT/PER/DIR
                          (F)     (DEG/KT/KT) (MB)    (MI)  (FT/S/D)
TANNER BANKS               65 66  300/ 10/ 12 1011.3S         5/320/ 9
S CLEMENTE BASIN           69 71  350/  4/  6 1011.1F         2/190/13
SAN NICOLAS IS.               65                N/A           2/300/11
SO. S. ROSA ISLA           62 61  310/  6/  8 1011.5R         5/300/ 9
W. S. BARBARA CH           62 60  300/ 12/ 16 1011.1
M. S. BARBARA CH           65 63  230/  4/  4 1012.2R         2/260/ 8
S. MONICA BASIN               67  290/  2/  2 1010.9F         2/200/11
S PEDRO CHANNEL               65                N/A           2/150/13
CMP PENDLETON NS              68                N/A           2/210/13
OCEANSIDE OFFSHR              68                N/A           2/190/13
TORREY PINES OTR              69                N/A           2/190/13
SAN DIEGO BAY                 72              1011.2F
POINT LOMA SOUTH              71                N/A           2/190/13

$$





USA.gov is the U.S. government's official web portal to all federal, state and local government web resources and services.